Wind_Speed
52 51 51 52 52 52 53 53 54 54 53 52 53 54 54 54 55 56 56 55 56 56 56 57 58 58 58 58 59 59 59 59 59 58 58 58 58 58
53 53 53 53 53 54 54 55 55 55 54 53 53 54 55 55 56 56 57 57 57 57 57 57 58 58 59 59 59 59 60 60 61 60 60 60 59 59
54 55 55 55 55 56 56 56 57 57 57 56 56 56 56 56 57 58 58 58 58 59 59 60 60 60 61 61 60 61 61 61 62 62 61 60 59 59
55 55 56 56 56 57 57 57 58 59 59 59 59 58 58 58 59 60 60 60 60 60 61 61 61 61 61 62 61 62 62 62 61 61 62 61 60 59
55 56 56 57 57 57 57 58 58 59 59 60 60 60 60 61 61 61 61 61 60 61 61 61 62 61 61 61 62 62 62 61 61 62 62 61 61 60
55 56 56 57 57 58 57 58 58 58 59 59 59 60 61 61 62 63 63 62 61 61 62 62 62 62 62 62 63 63 62 62 63 62 62 62 62 61
57 57 58 58 58 58 58 58 59 59 59 59 60 60 61 61 63 64 64 63 63 63 63 63 63 63 63 63 63 63 63 63 63 63 62 62 62 62
58 59 59 59 59 59 59 59 59 59 60 61 61 61 61 62 63 63 64 64 64 64 65 64 64 63 63 63 63 63 62 62 63 63 64 64 64 63
58 59 59 59 59 59 60 60 60 61 61 61 61 61 62 62 63 64 64 64 63 64 65 65 65 64 63 63 63 64 64 64 64 64 65 65 65 64
59 59 59 59 59 59 61 61 60 60 61 62 62 62 62 62 62 62 62 63 63 64 65 65 64 64 64 64 65 65 65 65 66 66 65 66 65 65
59 60 60 59 59 60 61 61 61 60 60 61 61 61 61 61 62 62 63 63 63 63 63 64 63 63 63 64 64 64 64 65 65 65 66 66 66 66
60 60 60 60 60 60 61 61 61 60 60 60 60 60 61 61 62 62 63 64 64 63 62 63 63 63 62 62 63 63 64 64 65 65 65 66 67 67
60 60 59 59 59 60 61 61 61 61 61 61 61 61 62 62 62 62 63 63 63 62 62 62 62 62 62 61 61 62 62 63 64 65 65 66 66 67
59 60 60 60 60 60 60 61 61 61 61 61 62 61 62 62 62 62 62 63 62 62 62 62 61 61 61 61 60 60 61 61 62 63 64 65 65 66
59 59 59 60 60 59 60 60 60 60 60 60 61 61 61 61 62 62 62 62 62 62 62 61 61 60 60 59 59 59 59 60 61 61 61 62 62 63
58 58 58 58 58 58 58 58 58 59 60 60 60 60 61 61 61 61 61 62 61 61 61 61 61 60 59 59 58 58 58 58 58 59 60 61 62 62
57 57 57 57 57 56 57 57 58 58 59 59 59 59 59 59 59 59 60 60 61 60 60 60 59 59 58 58 58 57 57 57 57 58 59 59 60 61
56 56 56 55 55 55 55 56 56 57 57 58 58 57 57 57 57 57 57 58 58 58 57 57 58 58 57 57 57 57 57 57 57 58 58 58 58 58
54 54 54 54 54 54 55 55 55 55 55 55 56 56 56 55 55 55 55 55 55 55 55 55 56 56 56 56 56 57 57 56 57 57 57 56 56 55
53 53 53 53 53 54 54 54 54 54 54 54 54 54 54 54 53 53 52 52 52 52 52 53 53 54 54 54 54 54 55 55 55 55 55 55 54 54
51 51 51 52 52 52 52 52 53 53 53 53 53 52 52 52 51 51 50 50 50 50 50 50 51 51 51 51 51 51 52 53 54 54 53 53 52 52
48 48 48 48 49 49 49 50 50 50 50 50 50 50 50 50 49 49 49 48 48 48 48 48 48 49 49 48 48 48 48 50 50 51 51 51 50 49
45 45 45 46 46 46 46 46 47 47 47 47 48 48 48 48 47 47 46 46 45 45 45 45 45 45 45 45 45 45 46 46 47 47 48 48 49 48
Wind_Direction
262 263 264 264 264 263 263 264 263 263 263 262 261 260 260 262 262 262 261 262 262 262 262 262 262 262 262 263 263 263 264 264 264 265 266 266 267 268
265 265 265 264 264 264 264 264 264 264 263 262 261 260 260 261 262 261 261 262 262 262 262 263 263 263 263 263 264 264 264 265 265 265 266 266 267 267
266 266 266 266 265 265 265 265 265 265 264 263 262 261 261 261 262 261 262 262 262 262 263 264 264 263 263 264 264 264 265 266 266 267 267 266 266 266
267 266 267 267 267 266 267 267 266 266 265 264 263 262 262 262 262 262 262 263 262 262 263 264 264 264 264 264 264 264 265 266 266 266 266 265 265 265
266 266 267 267 267 267 267 267 267 267 265 264 263 264 263 263 263 263 263 264 263 263 264 264 264 264 265 265 265 265 265 265 265 265 265 265 265 265
267 267 266 266 266 267 267 267 266 266 266 265 264 264 264 264 263 263 264 264 264 264 264 265 264 264 264 264 265 264 264 265 265 265 264 264 264 264
268 268 267 267 267 267 267 267 266 266 266 266 265 264 264 265 264 264 264 264 264 265 265 265 265 264 264 265 264 264 264 264 263 264 264 264 264 263
268 268 268 268 268 267 267 267 267 267 266 266 266 265 265 265 265 265 264 264 264 265 265 265 265 265 264 264 263 263 263 263 264 264 264 264 263 263
269 268 268 268 268 267 267 268 268 268 267 267 266 265 265 266 265 265 265 264 265 265 265 265 265 265 264 263 262 262 263 263 263 263 263 263 264 264
269 269 268 268 268 268 267 267 268 268 267 266 265 265 266 265 265 265 265 265 266 266 266 266 265 265 264 264 263 263 264 264 264 263 263 263 263 263
270 270 269 268 268 268 267 267 267 267 266 266 265 265 265 266 265 265 266 266 267 267 267 266 265 265 265 265 264 265 264 264 264 264 263 263 263 263
270 269 269 268 268 267 267 267 267 266 266 266 266 266 266 266 266 266 267 267 267 267 266 266 266 265 264 264 264 264 265 265 264 264 264 264 264 264
269 269 268 268 268 268 268 267 266 266 265 265 266 267 267 267 267 267 267 266 267 267 267 266 265 265 265 264 264 264 265 265 264 264 263 264 264 264
269 269 268 268 268 268 268 268 267 266 266 266 266 266 266 266 267 267 267 267 267 267 266 266 266 265 266 266 265 265 265 266 265 264 264 263 264 264
270 269 268 268 268 268 268 268 267 266 266 266 267 266 266 266 266 266 267 267 267 267 266 266 266 265 265 266 266 266 266 265 265 265 264 264 264 264
270 269 268 267 267 267 267 267 267 267 268 267 267 266 266 266 266 266 266 266 266 266 265 265 265 265 265 266 266 266 265 265 264 264 265 265 265 265
270 269 268 267 268 268 268 268 268 268 268 268 267 267 267 266 266 266 266 266 266 265 264 264 264 264 265 265 265 265 266 266 266 266 266 266 266 266
270 269 268 267 267 268 268 268 268 268 267 267 267 267 266 266 266 266 266 266 266 265 264 264 264 263 264 265 266 266 266 267 267 267 266 265 266 265
270 269 269 268 268 268 268 268 267 267 266 266 266 266 266 266 266 266 266 266 265 265 265 265 265 264 264 265 265 266 267 266 267 266 266 265 265 264
270 270 269 269 268 267 267 266 266 266 265 265 266 266 266 266 265 266 266 266 265 264 264 264 265 265 265 266 266 265 266 267 266 266 266 265 265 264
271 270 270 269 268 267 266 266 265 265 265 265 266 266 265 265 265 265 265 265 265 264 264 265 266 266 266 266 265 264 265 266 267 266 266 265 264 264
271 270 269 269 268 267 266 265 265 265 265 265 265 265 265 265 264 265 265 265 265 265 265 266 265 265 265 265 265 265 265 265 266 266 266 265 265 264
270 270 269 268 267 266 266 265 265 265 265 265 264 264 264 264 264 264 264 265 265 265 265 265 265 265 265 265 266 266 265 265 265 265 265 265 265 265
Height
5646 5646 5646 5646 5646 5647 5648 5649 5650 5651 5654 5655 5655 5655 5656 5657 5658 5659 5660 5661 5662 5663 5664 5665 5667 5668 5669 5671 5672 5673 5675 5676 5677 5678 5679 5680 5681 5681
5631 5632 5631 5631 5631 5632 5632 5633 5634 5635 5637 5640 5640 5640 5641 5642 5643 5644 5645 5646 5647 5648 5649 5650 5651 5652 5654 5655 5656 5657 5658 5659 5660 5661 5662 5664 5665 5665
5616 5616 5617 5616 5616 5617 5617 5618 5618 5619 5621 5623 5624 5625 5625 5626 5627 5628 5629 5630 5631 5632 5633 5634 5635 5636 5637 5639 5639 5640 5641 5642 5643 5645 5645 5647 5648 5649
5601 5601 5601 5601 5601 5601 5601 5601 5602 5602 5604 5606 5607 5608 5609 5610 5611 5612 5613 5614 5615 5616 5616 5617 5618 5619 5620 5621 5622 5623 5624 5625 5626 5627 5628 5630 5631 5632
5585 5585 5585 5585 5585 5585 5585 5585 5585 5586 5586 5588 5590 5591 5592 5593 5594 5595 5596 5597 5598 5598 5599 5600 5601 5602 5602 5603 5604 5606 5607 5608 5608 5609 5610 5612 5613 5615
5568 5569 5569 5569 5569 5569 5568 5569 5569 5569 5570 5571 5572 5573 5575 5575 5576 5578 5579 5580 5580 5580 5581 5582 5583 5583 5585 5586 5587 5588 5588 5589 5590 5591 5592 5594 5595 5597
5552 5552 5552 5552 5552 5552 5552 5552 5552 5552 5553 5553 5555 5556 5556 5557 5558 5559 5561 5561 5562 5562 5563 5564 5565 5566 5566 5567 5567 5568 5569 5570 5571 5573 5574 5576 5577 5579
5535 5535 5535 5535 5535 5535 5535 5535 5535 5535 5536 5536 5537 5538 5539 5539 5539 5540 5541 5543 5545 5545 5544 5545 5545 5546 5547 5548 5548 5549 5550 5551 5553 5554 5556 5557 5559 5561
5518 5517 5517 5517 5517 5517 5517 5517 5517 5517 5517 5518 5519 5520 5520 5521 5521 5521 5521 5522 5524 5525 5524 5526 5526 5527 5528 5528 5529 5530 5531 5532 5534 5535 5537 5538 5540 5542
5500 5500 5500 5500 5499 5499 5499 5499 5499 5499 5499 5499 5501 5501 5501 5501 5501 5502 5502 5503 5505 5504 5504 5506 5507 5508 5508 5508 5509 5510 5511 5513 5514 5515 5517 5519 5520 5522
5482 5482 5481 5482 5481 5481 5481 5482 5481 5481 5480 5481 5482 5482 5482 5482 5482 5482 5482 5483 5485 5486 5485 5486 5487 5488 5489 5490 5490 5490 5491 5492 5494 5495 5497 5499 5500 5502
5464 5463 5463 5463 5462 5461 5461 5462 5463 5463 5462 5463 5463 5464 5464 5464 5463 5463 5463 5463 5464 5466 5466 5466 5467 5467 5469 5471 5470 5470 5471 5472 5473 5475 5476 5478 5480 5482
5446 5445 5445 5444 5443 5443 5442 5443 5443 5443 5444 5444 5445 5445 5445 5445 5444 5444 5444 5444 5445 5447 5447 5447 5447 5447 5448 5452 5453 5452 5452 5452 5453 5455 5456 5458 5459 5461
5427 5426 5426 5425 5424 5424 5424 5423 5423 5424 5424 5425 5426 5426 5426 5426 5425 5425 5425 5425 5426 5427 5428 5427 5428 5429 5430 5431 5433 5434 5433 5433 5434 5435 5436 5438 5439 5441
5407 5407 5406 5406 5405 5405 5405 5404 5404 5404 5405 5406 5406 5407 5407 5407 5407 5407 5406 5406 5407 5408 5408 5409 5409 5410 5411 5412 5414 5415 5415 5415 5415 5416 5417 5418 5420 5421
5388 5388 5387 5387 5386 5386 5386 5386 5385 5386 5386 5387 5387 5387 5387 5387 5387 5387 5387 5387 5388 5389 5390 5390 5391 5392 5393 5394 5395 5396 5396 5397 5397 5397 5398 5399 5400 5401
5369 5369 5368 5368 5368 5368 5368 5368 5368 5367 5367 5367 5367 5367 5368 5368 5368 5368 5368 5368 5369 5371 5372 5372 5372 5373 5374 5375 5376 5377 5378 5379 5379 5379 5379 5380 5381 5381
5350 5350 5350 5350 5350 5350 5350 5350 5350 5349 5349 5349 5349 5349 5349 5349 5350 5350 5349 5350 5351 5352 5353 5354 5354 5354 5356 5357 5358 5359 5360 5361 5360 5360 5361 5361 5363 5363
5332 5332 5332 5332 5332 5332 5333 5333 5332 5332 5331 5331 5331 5331 5331 5332 5332 5332 5332 5332 5333 5334 5335 5336 5336 5337 5338 5340 5342 5342 5342 5342 5342 5342 5343 5344 5345 5345
5315 5315 5315 5314 5314 5314 5314 5314 5314 5314 5314 5314 5314 5314 5314 5315 5315 5315 5315 5316 5316 5317 5318 5319 5320 5320 5321 5323 5325 5325 5324 5324 5324 5325 5325 5326 5327 5328
5298 5298 5297 5297 5297 5297 5297 5297 5297 5297 5297 5297 5297 5297 5297 5298 5298 5299 5299 5299 5300 5301 5302 5303 5304 5304 5304 5305 5306 5308 5309 5308 5308 5308 5308 5309 5310 5311
5281 5281 5281 5280 5280 5280 5280 5280 5280 5280 5280 5280 5280 5280 5281 5281 5282 5283 5283 5284 5284 5285 5286 5287 5288 5288 5288 5289 5290 5292 5293 5293 5292 5292 5292 5293 5293 5296
5265 5265 5264 5264 5264 5264 5264 5264 5264 5264 5264 5264 5264 5265 5265 5266 5266 5267 5268 5268 5269 5270 5271 5272 5273 5273 5274 5274 5275 5276 5277 5278 5278 5278 5279 5278 5279 5280